Location: ??????
(42.0089°N, 44.3281°E)
Time: 13:07:34
(UTC+00:00)

NOSS 8 (H) - Pass Details

Date: 30 May 2022
Orbit: 366 x 1779 km, 63.3° (Epoch: 28 June)

Event Time Altitude Azimuth Distance (km) Brightness Sun altitude
Rises 19:18:39 0° 318° (NW) 2,589 9.6 -21.9°
Reaches altitude 10° 19:20:33 10° 312° (NW) 1,831 8.4 -22.1°
Maximum altitude 19:24:29 49° 237° (WSW) 884 5.7 -22.4°
Enters shadow 19:25:10 45° 210° (SSW) 961 5.7 -22.5°
